Flag for Sierra Leone Weather past 2 weeks in Bo, Sierra Leone

Now
86 °F

Scattered clouds.


Feels Like: 97 °F
Forecast: N/A
Wind: 8 mph from Southwest

Location: Lungi

Current Time: Jul 24, 2014 at 4:59:54 PM

Latest Report: Jul 24, 2014 at 4:30 PM


Visibility: N/A

Pressure: 29.89 "Hg

Humidity: 75%

Dew point: 77 °F

Location of BoLocation

Historic Weather in Bo — Graph

°F

Bo temperature yesterday

Maximum temperature yesterday: 82 °F (at 2:00 PM)
Minimum temperature yesterday: 75 °F (at 8:00 PM)
Average temperature yesterday: 79 °F

Past Weeks' High & Low Weather Summary

 TemperatureHumidityPressure
High86 °F (Jul 12, 3:00 PM)100% (Jul 11, 9:00 PM)30.04 "Hg (Jul 11, 9:00 PM)
Low72 °F (Jul 14, 3:00 AM)70% (Jul 12, 3:00 PM)29.86 "Hg (Jul 24, 12:30 AM)
Average79 °F86%29.97 "Hg
* Reported Jul 11 9:00 AM — Jul 24 4:00 PM, Bo, Weather by CustomWeather, © 2014

Note: Actual official high and low records may vary slightly from our data, if they occured in-between our weather recording intervals... More about our weather records

Advertising

Bo weather history for previous 24 hours

 ConditionsComfort  
Time TempWeatherWind HumidityBarometerVisibility
4:00 PM
Jul 24
86 °FScattered clouds.9 mph75%29.89 "HgN/A
3:30 PM86 °FScattered clouds.12 mph75%29.92 "HgN/A
3:00 PM86 °FScattered clouds.9 mph84%29.92 "HgN/A
2:30 PM86 °FScattered clouds.12 mph75%29.92 "HgN/A
8:00 AM77 °FPartly sunny.5 mph89%29.98 "HgN/A
7:30 AM77 °FPartly sunny.2 mph94%29.98 "HgN/A
7:00 AM77 °FPartly sunny.5 mph94%29.98 "HgN/A
6:00 AM75 °FPassing clouds.7 mph94%N/AN/A
5:30 AM73 °FPassing clouds.7 mph89%29.98 "HgN/A
3:30 AM73 °FPassing clouds.14 mph89%29.95 "HgN/A
3:00 AM73 °FPassing clouds.6 mph89%30.01 "HgN/A
1:30 AM73 °FPassing clouds.14 mph94%30.01 "HgN/A
1:00 AM73 °FPassing clouds.14 mph94%30.01 "HgN/A
12:30 AM75 °FRain. Passing clouds.13 mph100%29.86 "Hg5 mi
12:00 AM75 °FRain. Passing clouds.13 mph94%30.01 "Hg5 mi
8:00 PM
Jul 23
75 °FRain. Passing clouds.5 mph94%29.98 "Hg0 mi
7:30 PM77 °FLight rain. Passing clouds.7 mph89%29.98 "Hg0 mi
7:00 PM77 °FRain. Scattered clouds.9 mph89%29.98 "HgN/A
6:30 PM79 °FRain. Scattered clouds.5 mph79%29.98 "HgN/A
6:00 PM79 °FRain. Scattered clouds.10 mph79%29.98 "HgN/A
5:30 PM79 °FScattered clouds.7 mph84%29.95 "HgN/A
5:00 PM79 °FScattered clouds.8 mph84%29.95 "HgN/A
4:30 PM79 °FPartly sunny.9 mph89%29.95 "HgN/A
4:00 PM79 °FRain. Partly sunny.7 mph89%29.95 "HgN/A
Weather by CustomWeather, © 2014

See weather overviewHow to use our weather pages